Volver al catálogo

STARLINK-34244

ActivoComunicacionesVLEO
NORAD 65351·PAYLOAD·🇺🇸 United States

Lanzado Aug 28, 2025 desde Cape Canaveral Space Force Station

Loading…

Próximos Pases (próximas 24 horas)

TLE

ActualizadoSource: CelesTrak SupGP

Época: Sep 14, 2026, 14:43 UTC

1 65351C 25190A   26257.61368056 -.00098683  00000+0 -29170-2 0  2577
2 65351  53.1603   6.8986 0001334  82.8174 273.8421 15.34425142    17

Sigue STARLINK-34244 en tiempo real con AllMySat

Download on the App Store